Wind_Speed
84 88 88 91 88 88 85 74 76 82 86 82 77 63 36 38 40 38 46 51 56 62 68 75 82 88 95 99 98 102 101 102 103 108 103 106 106 104 99 95 94 86 82 77 79
83 88 89 89 92 90 85 76 77 84 86 85 79 65 38 35 36 40 44 52 57 60 64 73 82 88 92 99 98 100 97 100 101 102 102 114 110 105 102 99 97 90 86 82 79
82 86 89 92 93 92 83 77 79 84 87 86 82 61 44 38 35 34 40 49 56 62 65 74 81 87 91 97 99 99 96 100 102 103 106 113 110 108 106 104 98 93 89 85 81
81 85 88 93 92 93 84 79 78 85 88 86 84 63 46 40 34 29 36 46 55 64 69 74 79 86 90 93 98 97 100 101 101 104 101 109 114 110 110 104 100 97 93 89 86
80 85 87 91 91 93 90 80 81 86 88 91 83 62 46 41 30 27 32 42 50 63 70 75 80 85 88 90 98 100 99 99 102 103 99 108 112 111 110 106 104 101 98 93 87
79 84 88 89 93 94 96 83 81 86 90 92 81 62 47 41 31 26 28 39 48 61 72 76 80 84 87 89 97 98 99 101 103 99 102 105 108 116 112 109 107 105 102 98 91
79 83 89 88 92 97 97 87 81 84 90 91 82 65 50 43 31 21 23 34 47 57 72 78 82 84 86 89 94 100 100 100 100 96 100 102 110 107 111 111 108 105 103 99 96
80 83 87 88 91 97 99 92 82 84 90 92 85 68 51 44 33 21 18 28 42 55 68 77 81 84 85 86 90 96 100 101 102 101 98 100 101 105 113 115 112 109 106 101 98
79 82 86 87 89 95 97 94 83 85 91 93 84 68 53 45 35 26 18 22 37 51 64 76 83 85 85 86 89 96 100 101 100 97 95 93 98 108 110 114 114 111 108 104 101
79 80 85 85 90 93 95 95 82 85 91 90 87 69 53 46 36 27 16 17 32 47 62 73 79 82 83 86 86 86 91 99 98 96 93 94 96 100 107 109 111 114 111 107 103
78 78 83 83 88 91 93 92 86 85 91 92 83 69 52 45 37 27 12 10 26 43 55 65 71 74 78 77 83 90 93 97 98 96 95 93 94 97 105 107 109 107 110 111 107
75 77 80 78 84 87 91 87 86 84 91 91 85 69 53 47 38 28 12 4 18 36 50 60 67 72 75 79 84 84 87 90 95 95 93 92 93 97 99 104 108 107 106 107 108
74 75 76 77 83 84 87 85 88 87 90 91 78 68 55 46 38 29 11 4 13 27 45 57 63 69 76 78 80 82 83 87 92 95 93 90 92 91 94 98 104 105 100 102 104
72 73 72 74 79 80 82 82 86 89 89 90 80 67 58 46 40 34 13 9 10 25 42 52 60 67 72 72 73 78 83 86 86 90 93 94 91 90 93 97 101 103 100 100 104
70 70 70 70 76 76 78 77 86 88 89 89 81 70 60 47 41 35 17 14 8 22 31 45 52 58 65 69 72 77 80 81 84 89 92 89 88 88 88 91 97 99 99 100 100
68 71 65 68 73 73 75 75 83 87 91 89 83 71 62 50 41 36 26 10 15 12 29 39 46 53 62 65 66 71 76 79 84 85 85 88 87 86 87 87 92 96 97 97 100
65 69 63 65 70 70 70 74 79 87 86 88 81 71 63 55 40 36 30 13 14 13 20 34 41 51 56 60 63 68 72 75 77 78 81 83 84 86 86 90 93 93 93 94 96
63 64 59 61 66 65 68 70 75 82 85 84 80 71 62 59 45 29 25 11 8 17 26 30 36 43 50 56 59 62 65 69 70 70 75 79 83 88 90 92 92 90 90 92 96
61 55 57 59 62 62 63 65 72 80 81 80 77 72 66 58 49 32 22 14 4 15 24 30 39 46 49 54 56 57 59 61 63 65 69 78 81 87 92 93 91 89 89 87 90
53 51 54 56 58 58 60 61 68 76 81 76 74 74 68 59 52 35 20 15 6 9 24 31 34 40 44 49 53 56 57 59 61 64 67 72 75 79 87 90 91 91 91 91 90
49 49 51 54 54 53 57 55 63 69 74 76 71 69 68 65 58 44 20 11 7 5 18 28 34 36 38 43 48 52 54 57 59 61 65 67 71 72 78 82 88 92 93 93 93
46 49 48 51 50 50 53 54 59 66 71 74 72 65 66 61 60 51 30 11 6 7 12 21 32 35 39 41 45 50 52 55 58 62 64 66 68 69 72 76 80 84 88 91 93
44 47 45 48 45 46 49 50 55 61 66 72 71 67 64 63 59 55 39 20 8 8 12 16 25 34 39 42 44 47 50 52 54 57 61 63 67 70 72 74 74 76 79 84 88
41 43 43 46 43 43 47 45 51 57 63 69 72 70 65 63 58 52 45 29 13 9 12 15 23 25 32 41 46 49 53 55 56 57 62 63 67 70 72 71 71 72 75 80 83
40 42 40 43 40 40 43 42 47 53 60 67 73 74 67 64 58 51 47 39 23 10 13 16 20 26 29 33 40 49 52 55 58 64 62 68 68 73 73 70 71 73 76 78 80
37 39 38 40 37 38 43 38 46 50 57 64 69 75 79 66 59 56 49 44 34 19 12 15 19 23 28 35 38 40 49 52 56 60 61 67 69 69 71 72 73 73 75 76 77
34 37 38 37 36 37 39 37 43 47 53 59 64 73 80 74 63 60 53 46 42 30 18 15 17 21 25 30 37 40 43 46 51 55 58 63 69 65 70 70 71 69 69 73 74
Wind_Direction
336 338 339 338 341 343 344 346 347 345 342 345 342 335 307 292 280 263 249 239 232 228 224 221 218 218 217 217 214 217 215 215 214 217 212 216 218 217 217 220 223 223 223 224 226
336 337 338 339 339 342 344 346 348 347 344 344 343 336 318 301 282 267 248 240 232 229 222 221 218 217 217 215 215 217 215 216 216 215 210 213 219 217 218 218 222 222 222 223 224
335 336 336 337 338 340 345 346 346 348 346 346 343 335 323 311 295 269 252 238 228 226 221 218 217 217 216 215 214 216 215 216 215 215 212 214 216 218 219 218 220 223 223 224 223
334 335 336 336 338 340 343 348 347 350 348 348 344 338 326 317 303 274 251 238 227 223 220 217 216 216 215 214 214 214 214 216 215 217 215 212 212 219 218 218 220 222 224 224 226
332 334 334 336 337 340 341 348 350 350 351 351 344 339 330 323 306 279 253 239 224 222 219 216 214 214 214 212 212 212 216 215 216 216 214 214 213 215 221 217 219 221 223 224 225
331 333 332 335 337 339 341 348 353 351 351 352 347 342 334 330 316 291 257 236 225 218 216 215 213 212 211 210 211 211 214 216 218 215 215 214 213 213 219 220 219 221 222 224 225
330 331 332 335 338 340 339 349 352 352 354 353 348 345 338 334 324 303 265 235 226 217 214 211 212 210 210 210 209 211 213 216 218 217 216 214 215 214 217 221 220 221 223 224 226
328 329 331 335 339 338 340 347 349 353 356 353 349 347 342 340 331 317 283 239 224 216 214 211 210 210 209 209 209 209 212 215 218 218 216 214 214 214 215 220 222 221 223 225 227
326 327 330 334 339 337 341 343 351 355 357 354 352 348 343 346 337 328 298 243 219 213 211 210 210 209 207 206 206 209 211 214 218 217 218 215 215 215 217 220 221 222 223 225 227
324 325 330 334 336 338 341 341 351 357 359 352 353 350 348 349 345 336 310 250 214 208 207 209 209 207 207 206 207 209 212 215 217 218 218 216 215 216 217 218 221 223 223 224 226
321 325 329 334 335 339 340 342 349 358 1 357 355 354 351 352 355 341 329 243 209 202 206 207 208 207 206 207 206 206 208 214 216 217 219 217 215 216 218 217 221 224 224 224 225
319 325 328 335 335 338 340 343 347 357 360 360 356 355 354 357 360 347 343 212 193 201 202 203 205 203 203 205 207 210 210 212 215 217 219 217 216 217 218 218 221 223 223 225 226
317 322 328 335 335 338 341 345 344 355 360 2 359 360 1 2 3 355 11 59 172 196 196 200 203 201 204 204 206 206 209 213 214 216 218 218 217 217 219 219 221 225 224 226 226
315 321 327 333 336 338 343 344 346 351 0 0 2 3 5 7 6 6 23 61 157 182 197 195 199 201 203 205 206 208 209 212 214 216 218 219 217 217 218 219 221 224 224 225 227
313 318 326 330 336 339 342 345 346 349 357 360 3 6 7 9 9 10 14 78 133 176 194 197 198 202 202 204 205 208 211 212 214 216 218 220 221 220 221 221 222 224 225 226 227
310 315 326 329 336 340 341 345 345 349 351 359 3 9 10 9 12 12 11 69 105 178 188 191 194 199 202 204 207 209 212 214 216 217 218 220 221 223 224 224 225 226 226 226 228
309 314 324 329 336 340 342 345 345 347 349 356 4 10 14 11 11 13 14 5 117 138 187 193 190 195 202 207 208 210 213 215 218 219 219 222 222 225 225 226 227 227 228 229 229
306 314 322 330 335 339 342 346 346 345 354 358 2 8 13 15 10 13 16 2 142 155 168 178 190 200 204 206 209 212 215 217 218 219 221 223 223 223 226 228 230 230 229 229 231
304 313 321 328 335 340 341 346 348 345 352 359 2 8 14 12 13 6 11 19 252 183 167 182 189 198 204 208 212 213 217 218 220 221 221 223 223 224 226 229 232 233 232 232 234
304 310 319 326 334 340 341 346 350 348 350 2 6 3 10 13 14 9 2 5 8 220 189 185 191 199 206 210 214 213 215 218 220 220 222 225 226 226 228 230 232 234 235 234 234
300 306 317 324 334 339 340 345 350 350 353 360 11 6 11 15 15 12 4 353 336 247 215 205 200 201 205 211 214 217 219 220 221 223 225 227 229 229 232 231 232 234 236 237 238
296 303 313 322 333 337 341 345 350 350 354 0 7 12 9 13 14 13 7 351 314 272 230 220 213 211 207 207 212 215 218 221 224 225 227 229 231 232 233 234 233 235 236 238 239
292 300 312 321 331 337 341 343 349 351 353 356 2 14 11 13 14 14 14 360 311 270 253 240 229 221 215 212 211 212 217 221 225 228 230 232 234 234 233 235 235 236 238 239 240
289 299 310 321 331 338 342 342 348 350 356 358 359 9 12 10 10 13 13 9 342 273 256 246 239 232 228 227 220 218 216 218 221 225 228 230 234 235 236 237 238 238 239 240 241
286 296 309 318 326 338 340 341 347 351 359 360 3 8 22 15 12 9 11 7 0 306 246 248 246 246 242 237 234 230 227 225 222 226 227 231 232 235 238 237 239 240 241 243 243
283 295 304 313 325 336 335 336 345 351 1 3 7 6 9 21 17 16 12 8 2 349 283 236 240 243 245 240 238 239 235 234 235 236 236 238 237 241 243 243 241 242 245 246 249
281 292 300 312 322 330 331 333 344 352 359 7 8 7 9 15 19 19 15 7 2 356 332 275 244 241 242 243 242 239 241 243 243 246 247 245 247 246 248 250 249 249 249 250 252
Height
10715 10703 10690 10673 10664 10649 10636 10623 10609 10593 10572 10555 10539 10528 10515 10508 10501 10500 10499 10502 10507 10511 10521 10531 10545 10559 10573 10589 10608 10616 10631 10648 10661 10674 10708 10713 10725 10739 10751 10765 10773 10784 10797 10806 10808
10710 10698 10683 10670 10656 10642 10630 10615 10600 10583 10561 10540 10525 10510 10502 10496 10489 10483 10483 10485 10490 10498 10509 10520 10532 10543 10559 10576 10592 10601 10624 10641 10658 10670 10691 10692 10706 10726 10739 10751 10760 10774 10784 10793 10803
10706 10693 10677 10662 10648 10632 10624 10608 10592 10573 10552 10529 10512 10497 10487 10479 10473 10469 10465 10467 10475 10484 10493 10502 10516 10529 10546 10560 10577 10591 10617 10627 10636 10646 10667 10680 10699 10714 10723 10736 10754 10765 10774 10783 10795
10702 10688 10672 10657 10640 10626 10616 10601 10584 10562 10543 10520 10499 10483 10472 10464 10457 10452 10450 10450 10460 10466 10477 10487 10501 10517 10533 10552 10567 10584 10597 10608 10626 10635 10661 10669 10682 10690 10705 10727 10743 10752 10763 10773 10784
10697 10683 10667 10652 10635 10619 10603 10594 10574 10555 10534 10512 10492 10474 10461 10451 10444 10439 10437 10437 10444 10453 10463 10475 10488 10503 10521 10542 10555 10569 10583 10598 10610 10622 10642 10656 10673 10682 10696 10719 10727 10738 10750 10762 10772
10692 10678 10662 10648 10629 10613 10594 10588 10567 10550 10526 10504 10485 10465 10453 10442 10433 10426 10424 10425 10429 10438 10448 10463 10477 10491 10507 10526 10541 10560 10570 10583 10595 10615 10627 10645 10657 10669 10681 10700 10714 10725 10738 10750 10760
10687 10673 10657 10643 10626 10607 10587 10579 10563 10544 10519 10497 10480 10459 10443 10432 10423 10416 10412 10412 10416 10425 10434 10447 10461 10479 10496 10512 10529 10543 10558 10573 10588 10607 10612 10627 10642 10668 10677 10687 10702 10714 10726 10739 10749
10683 10669 10654 10638 10623 10601 10581 10572 10558 10538 10514 10493 10471 10449 10437 10423 10412 10405 10403 10401 10405 10413 10424 10437 10452 10469 10486 10501 10518 10535 10547 10558 10571 10582 10601 10618 10642 10652 10659 10669 10684 10699 10713 10728 10738
10679 10665 10650 10635 10621 10598 10580 10566 10553 10534 10512 10491 10465 10444 10427 10417 10405 10396 10392 10392 10394 10403 10413 10426 10438 10454 10474 10493 10505 10518 10536 10550 10563 10580 10595 10612 10625 10630 10639 10657 10672 10687 10701 10714 10726
10672 10661 10647 10633 10616 10596 10579 10559 10550 10530 10510 10489 10463 10441 10423 10411 10400 10390 10384 10384 10386 10393 10402 10415 10430 10449 10467 10482 10502 10522 10537 10543 10556 10570 10585 10599 10609 10622 10634 10648 10660 10673 10687 10701 10713
10667 10658 10644 10631 10613 10594 10575 10556 10544 10528 10510 10490 10461 10439 10423 10410 10397 10388 10380 10378 10380 10386 10396 10411 10428 10450 10466 10485 10496 10502 10515 10529 10544 10559 10571 10586 10599 10610 10620 10638 10647 10661 10673 10686 10700
10664 10654 10642 10630 10611 10593 10573 10556 10539 10529 10509 10489 10465 10441 10424 10410 10397 10388 10379 10377 10377 10383 10393 10408 10424 10442 10458 10471 10483 10501 10510 10523 10536 10551 10561 10574 10588 10599 10613 10627 10637 10647 10659 10676 10688
10660 10651 10639 10626 10608 10591 10573 10555 10534 10525 10507 10490 10472 10443 10426 10412 10400 10391 10382 10378 10378 10386 10395 10407 10420 10438 10450 10463 10478 10494 10508 10517 10527 10539 10552 10568 10581 10595 10605 10617 10627 10637 10653 10663 10674
10656 10648 10637 10624 10608 10589 10574 10555 10536 10522 10508 10493 10473 10449 10430 10416 10405 10395 10387 10383 10383 10388 10394 10405 10418 10432 10448 10462 10477 10490 10497 10506 10521 10534 10542 10552 10569 10579 10589 10603 10615 10624 10639 10648 10656
10652 10644 10635 10622 10608 10589 10573 10555 10535 10522 10507 10497 10475 10454 10433 10419 10410 10400 10394 10389 10390 10395 10404 10411 10420 10434 10447 10459 10469 10481 10491 10503 10511 10519 10533 10551 10562 10575 10585 10595 10602 10612 10624 10635 10643
10647 10639 10633 10618 10607 10590 10572 10557 10537 10522 10510 10498 10481 10457 10440 10425 10412 10406 10402 10396 10396 10401 10405 10413 10422 10434 10444 10455 10468 10476 10486 10495 10502 10512 10531 10540 10554 10565 10572 10584 10589 10599 10610 10621 10628
10642 10635 10629 10616 10604 10588 10573 10558 10539 10520 10514 10499 10482 10466 10449 10434 10421 10412 10408 10406 10402 10406 10413 10417 10425 10433 10445 10454 10462 10470 10479 10488 10498 10513 10525 10536 10548 10553 10564 10566 10574 10585 10596 10606 10617
10638 10631 10625 10616 10603 10590 10574 10560 10542 10524 10515 10501 10486 10470 10453 10441 10429 10421 10416 10414 10410 10410 10413 10421 10430 10438 10444 10450 10458 10467 10475 10483 10494 10506 10516 10525 10536 10539 10544 10552 10562 10575 10585 10594 10601
10633 10628 10620 10613 10602 10589 10575 10562 10545 10526 10517 10506 10489 10475 10460 10447 10435 10425 10422 10420 10418 10415 10417 10421 10426 10431 10438 10445 10455 10465 10473 10482 10491 10499 10505 10508 10519 10525 10531 10540 10551 10563 10572 10582 10589
10629 10623 10616 10609 10600 10588 10575 10562 10548 10529 10510 10508 10495 10474 10462 10451 10441 10431 10424 10422 10421 10420 10419 10422 10426 10431 10436 10442 10450 10457 10464 10472 10480 10484 10492 10498 10507 10516 10520 10531 10540 10547 10555 10564 10572
10623 10618 10614 10605 10598 10588 10575 10564 10552 10535 10516 10505 10501 10481 10465 10452 10443 10435 10429 10425 10423 10423 10423 10423 10426 10430 10435 10440 10446 10453 10459 10465 10471 10478 10483 10489 10494 10505 10510 10520 10525 10532 10539 10547 10554
10617 10612 10610 10602 10596 10586 10574 10563 10553 10537 10518 10504 10499 10491 10472 10457 10445 10437 10431 10426 10424 10422 10423 10424 10425 10427 10431 10434 10439 10444 10450 10456 10462 10466 10473 10479 10487 10492 10498 10503 10510 10519 10526 10533 10540
10610 10606 10604 10599 10592 10584 10575 10564 10552 10540 10521 10504 10499 10492 10479 10463 10450 10440 10433 10427 10423 10423 10422 10423 10424 10425 10426 10430 10434 10437 10442 10448 10454 10460 10464 10468 10472 10476 10481 10486 10496 10505 10511 10517 10521
10603 10601 10598 10594 10588 10581 10572 10563 10553 10541 10524 10509 10495 10489 10482 10467 10454 10442 10435 10428 10424 10421 10420 10420 10421 10422 10424 10426 10429 10431 10433 10438 10443 10449 10448 10456 10457 10462 10466 10476 10483 10491 10495 10497 10501
10596 10594 10593 10590 10585 10578 10571 10561 10552 10541 10527 10510 10496 10484 10480 10470 10458 10445 10435 10429 10424 10421 10418 10417 10417 10418 10418 10420 10422 10425 10429 10432 10434 10433 10441 10438 10446 10446 10452 10464 10470 10473 10476 10479 10482
10590 10588 10587 10584 10582 10575 10567 10559 10551 10541 10526 10512 10498 10483 10472 10470 10460 10449 10436 10427 10422 10417 10415 10414 10413 10413 10414 10414 10416 10418 10422 10424 10426 10428 10431 10432 10434 10439 10443 10448 10454 10459 10462 10466 10468
10583 10582 10581 10578 10576 10571 10565 10557 10549 10539 10527 10515 10500 10483 10470 10466 10460 10447 10436 10429 10420 10414 10410 10408 10408 10409 10410 10410 10411 10412 10412 10415 10418 10419 10422 10424 10421 10431 10431 10435 10439 10446 10453 10453 10453